| time (UTC) | temp C | wind direction | speed KPH | gust KPH | rain 1hr cm | rain 24hr cm | rain mn cm | humidity % | barometer mb |
| 20260505124717 | 17 | 315 | 1.6 | 3.2 | 0.00 | 0.00 | 0.00 | ||
| 20260505124116 | 17 | 360 | 1.6 | 1.6 | 0.00 | 0.00 | 0.00 | ||
| 20260505123516 | 17 | 315 | 0.0 | 1.6 | 0.00 | 0.00 | 0.00 | ||
| 20260505122915 | 16 | 180 | 0.0 | 1.6 | 0.00 | 0.00 | 0.00 | ||
| 20260505122315 | 16 | 225 | 0.0 | 3.2 | 0.00 | 0.00 | 0.00 | ||
| 20260505121715 | 16 | 225 | 0.0 | 3.2 | 0.00 | 0.00 | 0.00 | ||
| 20260505115815 | 15 | 90 | 1.6 | 3.2 | 0.00 | 0.00 | 0.00 | ||
| 20260505115215 | 14 | 90 | 0.0 | 3.2 | 0.00 | 0.00 | 0.00 | ||
| 20260505114615 | 14 | 45 | 1.6 | 3.2 | 0.00 | 0.00 | 0.00 | ||
| 20260505114014 | 13 | 90 | 0.0 | 1.6 | 0.00 | 0.00 | 0.00 | ||
| 20260505113419 | 13 | 45 | 0.0 | 1.6 | 0.00 | 0.00 | 0.00 | ||
| 20260505112815 | 13 | 90 | 0.0 | 1.6 | 0.00 | 0.00 | 0.00 | ||
| 20260505112214 | 13 | 90 | 0.0 | 0.0 | 0.00 | 0.00 | 0.00 | ||
| 20260505111615 | 13 | 90 | 0.0 | 0.0 | 0.00 | 0.00 | 0.00 | ||
| 20260505110415 | 12 | 135 | 0.0 | 1.6 | 0.00 | 0.00 | 0.00 | ||
| 20260505102213 | 12 | 180 | 0.0 | 0.0 | 0.00 | 0.00 | 0.00 | ||
| 20260505101614 | 12 | 225 | 0.0 | 0.0 | 0.00 | 0.00 | 0.00 | ||
| 20260505100514 | 12 | 90 | 0.0 | 0.0 | 0.00 | 0.00 | 0.00 | ||
| 20260505095914 | 12 | 90 | 0.0 | 0.0 | 0.00 | 0.00 | 0.00 | ||
| 20260505095314 | 12 | 360 | 0.0 | 1.6 | 0.00 | 0.00 | 0.00 | ||
| 20260505094713 | 12 | 90 | 0.0 | 1.6 | 0.00 | 0.00 | 0.00 | ||
| 20260505094113 | 12 | 315 | 0.0 | 3.2 | 0.00 | 0.00 | 0.00 | ||
| 20260505093514 | 12 | 315 | 1.6 | 3.2 | 0.00 | 0.00 | 0.00 | ||
| 20260505092913 | 12 | 45 | 1.6 | 3.2 | 0.00 | 0.00 | 0.00 | ||
| 20260505092313 | 12 | 45 | 0.0 | 0.0 | 0.00 | 0.00 | 0.00 | ||
| 20260505091714 | 12 | 90 | 0.0 | 0.0 | 0.00 | 0.00 | 0.00 | ||
| 20260505090713 | 12 | 90 | 0.0 | 3.2 | 0.00 | 0.00 | 0.00 | ||
| 20260505090113 | 12 | 360 | 0.0 | 3.2 | 0.00 | 0.00 | 0.00 | ||
| 20260505084814 | 12 | 45 | 1.6 | 3.2 | 0.00 | 0.00 | 0.00 | ||
| 20260505084214 | 12 | 270 | 0.0 | 0.0 | 0.00 | 0.00 | 0.00 | ||
| 20260505082913 | 12 | 270 | 0.0 | 0.0 | 0.00 | 0.00 | 0.00 | ||
| 20260505082314 | 12 | 270 | 0.0 | 1.6 | 0.00 | 0.00 | 0.00 | ||
| 20260505081714 | 12 | 270 | 0.0 | 3.2 | 0.00 | 0.00 | 0.00 | ||
| 20260505080517 | 12 | 360 | 1.6 | 4.8 | 0.00 | 0.00 | 0.00 | ||
| 20260505075916 | 12 | 315 | 1.6 | 3.2 | 0.00 | 0.00 | 0.00 | ||
| 20260505075316 | 12 | 360 | 1.6 | 1.6 | 0.00 | 0.00 | 0.00 | ||
| 20260505074715 | 12 | 315 | 0.0 | 3.2 | 0.00 | 0.00 | 0.00 | ||
| 20260505074115 | 12 | 315 | 0.0 | 3.2 | 0.00 | 0.00 | 0.00 | ||
| 20260505073516 | 12 | 315 | 0.0 | 1.6 | 0.00 | 0.00 | 0.00 | ||
| 20260505072915 | 12 | 90 | 0.0 | 3.2 | 0.00 | 0.00 | 0.00 | ||
| 20260505072314 | 12 | 360 | 1.6 | 3.2 | 0.00 | 0.00 | 0.00 | ||
| 20260505071713 | 12 | 0 | 0.0 | 1.6 | 0.00 | 0.00 | 0.00 | ||
| 20260505070516 | 12 | 45 | 0.0 | 1.6 | 0.00 | 0.00 | 0.00 | ||
| 20260505065916 | 12 | 45 | 0.0 | 1.6 | 0.00 | 0.00 | 0.00 | ||
| 20260505065316 | 12 | 135 | 0.0 | 1.6 | 0.00 | 0.00 | 0.00 | ||
| 20260505064715 | 13 | 90 | 0.0 | 1.6 | 0.00 | 0.00 | 0.00 | ||
| 20260505064115 | 13 | 90 | 0.0 | 3.2 | 0.00 | 0.00 | 0.00 | ||
| 20260505063515 | 13 | 45 | 1.6 | 3.2 | 0.00 | 0.00 | 0.00 | ||
| 20260505062914 | 13 | 360 | 0.0 | 1.6 | 0.00 | 0.00 | 0.00 | ||
| 20260505062315 | 13 | 45 | 0.0 | 3.2 | 0.00 | 0.00 | 0.00 | ||
| 20260505061715 | 13 | 225 | 0.0 | 3.2 | 0.00 | 0.00 | 0.00 | ||
| 20260505060416 | 13 | 180 | 0.0 | 4.8 | 0.00 | 0.00 | 0.00 | ||
| 20260505055815 | 14 | 360 | 0.0 | 4.8 | 0.00 | 0.00 | 0.00 | ||
| 20260505055216 | 14 | 45 | 1.6 | 4.8 | 0.00 | 0.00 | 0.00 | ||
| 20260505054616 | 14 | 315 | 3.2 | 8.0 | 0.00 | 0.00 | 0.00 | ||
| 20260505054015 | 14 | 315 | 1.6 | 4.8 | 0.00 | 0.00 | 0.00 | ||
| 20260505053416 | 14 | 315 | 1.6 | 4.8 | 0.00 | 0.00 | 0.00 | ||
| 20260505052816 | 14 | 315 | 1.6 | 4.8 | 0.00 | 0.00 | 0.00 | ||
| 20260505052215 | 14 | 225 | 1.6 | 3.2 | 0.00 | 0.00 | 0.00 | ||
| 20260505051615 | 14 | 360 | 1.6 | 8.0 | 0.00 | 0.00 | 0.00 | ||
| 20260505050415 | 14 | 360 | 3.2 | 4.8 | 0.00 | 0.00 | 0.00 | ||
| 20260505041614 | 14 | 315 | 0.0 | 6.4 | 0.00 | 0.00 | 0.00 | ||
| 20260505040519 | 13 | 315 | 1.6 | 3.2 | 0.00 | 0.00 | 0.00 | ||
| 20260505035918 | 13 | 360 | 1.6 | 3.2 | 0.00 | 0.00 | 0.00 | ||
| 20260505035319 | 13 | 90 | 0.0 | 0.0 | 0.00 | 0.00 | 0.00 | ||
| 20260505034718 | 13 | 270 | 0.0 | 0.0 | 0.00 | 0.00 | 0.00 | ||
| 20260505034118 | 13 | 270 | 0.0 | 0.0 | 0.00 | 0.00 | 0.00 | ||
| 20260505033515 | 13 | 270 | 0.0 | 1.6 | 0.00 | 0.00 | 0.00 | ||
| 20260505032914 | 14 | 180 | 0.0 | 3.2 | 0.00 | 0.00 | 0.00 | ||
| 20260505032315 | 14 | 315 | 0.0 | 3.2 | 0.00 | 0.00 | 0.00 | ||
| 20260505031714 | 13 | 360 | 3.2 | 3.2 | 0.00 | 0.00 | 0.00 | ||
| 20260505030615 | 14 | 315 | 1.6 | 3.2 | 0.00 | 0.00 | 0.00 | ||
| 20260505030014 | 14 | 315 | 0.0 | 1.6 | 0.00 | 0.00 | 0.00 | ||
| 20260505025414 | 14 | 270 | 0.0 | 3.2 | 0.00 | 0.00 | 0.00 | ||
| 20260505024814 | 14 | 360 | 0.0 | 3.2 | 0.00 | 0.00 | 0.00 | ||
| 20260505024214 | 14 | 315 | 0.0 | 3.2 | 0.00 | 0.00 | 0.00 | ||
| 20260505023613 | 14 | 315 | 0.0 | 4.8 | 0.00 | 0.00 | 0.00 | ||
| 20260505023013 | 14 | 315 | 3.2 | 4.8 | 0.00 | 0.00 | 0.00 | ||
| 20260505021714 | 14 | 315 | 3.2 | 4.8 | 0.00 | 0.00 | 0.00 | ||
| 20260505020714 | 14 | 315 | 0.0 | 1.6 | 0.00 | 0.00 | 0.00 | ||
| 20260505015413 | 14 | 225 | 0.0 | 0.0 | 0.00 | 0.00 | 0.00 | ||
| 20260505014814 | 14 | 315 | 0.0 | 0.0 | 0.00 | 0.00 | 0.00 | ||
| 20260505014213 | 14 | 315 | 0.0 | 0.0 | 0.00 | 0.00 | 0.00 | ||
| 20260505012914 | 15 | 90 | 0.0 | 0.0 | 0.00 | 0.00 | 0.00 | ||
| 20260505011715 | 15 | 180 | 0.0 | 0.0 | 0.00 | 0.00 | 0.00 | ||
| 20260505010514 | 15 | 225 | 0.0 | 1.6 | 0.00 | 0.00 | 0.00 | ||
| 20260505005914 | 15 | 180 | 0.0 | 1.6 | 0.00 | 0.00 | 0.00 | ||
| 20260505005313 | 15 | 315 | 1.6 | 3.2 | 0.00 | 0.00 | 0.00 | ||
| 20260505004714 | 15 | 45 | 0.0 | 3.2 | 0.00 | 0.00 | 0.00 | ||
| 20260505004114 | 15 | 45 | 0.0 | 0.0 | 0.00 | 0.00 | 0.00 | ||
| 20260505003514 | 15 | 225 | 0.0 | 0.0 | 0.00 | 0.00 | 0.00 | ||
| 20260505002913 | 15 | 225 | 0.0 | 0.0 | 0.00 | 0.00 | 0.00 | ||
| 20260505002313 | 15 | 225 | 0.0 | 0.0 | 0.00 | 0.00 | 0.00 | ||
| 20260505001714 | 15 | 225 | 0.0 | 0.0 | 0.00 | 0.00 | 0.00 | ||
| 20260505000420 | 15 | 180 | 0.0 | 0.0 | 0.00 | 0.00 | 0.00 | ||
| 20260504235819 | 15 | 180 | 0.0 | 0.0 | 0.00 | 0.00 | 0.00 | ||
| 20260504235219 | 15 | 180 | 0.0 | 1.6 | 0.00 | 0.00 | 0.00 | ||
| 20260504234615 | 15 | 180 | 0.0 | 1.6 | 0.00 | 0.00 | 0.00 | ||
| 20260504234015 | 15 | 315 | 0.0 | 1.6 | 0.00 | 0.00 | 0.00 | ||
| 20260504233416 | 15 | 135 | 1.6 | 1.6 | 0.00 | 0.00 | 0.00 | ||
| 20260504232816 | 15 | 90 | 0.0 | 0.0 | 0.00 | 0.00 | 0.00 | ||
| 20260504232216 | 15 | 90 | 0.0 | 1.6 | 0.00 | 0.00 | 0.00 | ||
| 20260504231615 | 15 | 90 | 0.0 | 0.0 | 0.00 | 0.00 | 0.00 | ||
| 20260504230515 | 15 | 225 | 0.0 | 1.6 | 0.00 | 0.00 | 0.00 | ||
| 20260504225916 | 16 | 180 | 0.0 | 1.6 | 0.00 | 0.00 | 0.00 | ||
| 20260504225315 | 16 | 225 | 0.0 | 3.2 | 0.00 | 0.00 | 0.00 | ||
| 20260504224716 | 16 | 225 | 1.6 | 3.2 | 0.00 | 0.00 | 0.00 | ||
| 20260504224116 | 16 | 225 | 0.0 | 3.2 | 0.00 | 0.00 | 0.00 | ||
| 20260504223515 | 16 | 270 | 1.6 | 3.2 | 0.00 | 0.00 | 0.00 | ||
| 20260504222916 | 16 | 225 | 0.0 | 3.2 | 0.00 | 0.00 | 0.00 | ||
| 20260504222315 | 16 | 225 | 1.6 | 4.8 | 0.00 | 0.00 | 0.00 | ||
| 20260504221715 | 16 | 315 | 1.6 | 4.8 | 0.00 | 0.00 | 0.00 | ||
| 20260504220516 | 16 | 315 | 1.6 | 4.8 | 0.00 | 0.00 | 0.00 | ||
| 20260504215915 | 17 | 360 | 3.2 | 4.8 | 0.00 | 0.00 | 0.00 | ||
| 20260504215315 | 17 | 360 | 1.6 | 3.2 | 0.00 | 0.00 | 0.00 | ||
| 20260504214715 | 17 | 315 | 0.0 | 4.8 | 0.00 | 0.00 | 0.00 | ||
| 20260504214115 | 17 | 315 | 1.6 | 3.2 | 0.00 | 0.00 | 0.00 | ||
| 20260504213517 | 17 | 270 | 0.0 | 3.2 | 0.00 | 0.00 | 0.00 | ||
| 20260504212915 | 18 | 315 | 0.0 | 3.2 | 0.00 | 0.00 | 0.00 | ||
| 20260504212315 | 18 | 315 | 0.0 | 4.8 | 0.00 | 0.00 | 0.00 | ||
| 20260504211714 | 18 | 315 | 0.0 | 4.8 | 0.00 | 0.00 | 0.00 | ||
| 20260504210519 | 20 | 360 | 3.2 | 8.0 | 0.00 | 0.00 | 0.00 | ||
| 20260504205919 | 20 | 315 | 1.6 | 8.0 | 0.00 | 0.00 | 0.00 | ||
| 20260504205314 | 21 | 315 | 1.6 | 8.0 | 0.00 | 0.00 | 0.00 | ||
| 20260504204713 | 21 | 315 | 3.2 | 4.8 | 0.00 | 0.00 | 0.00 | ||
| 20260504204114 | 22 | 270 | 0.0 | 4.8 | 0.00 | 0.00 | 0.00 | ||
| 20260504203513 | 22 | 45 | 0.0 | 6.4 | 0.00 | 0.00 | 0.00 | ||
| 20260504202913 | 22 | 360 | 3.2 | 6.4 | 0.00 | 0.00 | 0.00 | ||
| 20260504202314 | 22 | 315 | 0.0 | 4.8 | 0.00 | 0.00 | 0.00 | ||
| 20260504201713 | 22 | 225 | 0.0 | 4.8 | 0.00 | 0.00 | 0.00 | ||
| 20260504200514 | 22 | 225 | 3.2 | 9.7 | 0.00 | 0.00 | 0.00 | ||
| 20260504195913 | 22 | 225 | 1.6 | 11.3 | 0.00 | 0.00 | 0.00 | ||
| 20260504195313 | 22 | 270 | 3.2 | 11.3 | 0.00 | 0.00 | 0.00 | ||
| 20260504194714 | 23 | 225 | 3.2 | 9.7 | 0.00 | 0.00 | 0.00 | ||
| 20260504194118 | 23 | 270 | 3.2 | 9.7 | 0.00 | 0.00 | 0.00 | ||
| 20260504193513 | 23 | 270 | 1.6 | 9.7 | 0.00 | 0.00 | 0.00 | ||
| 20260504192213 | 23 | 270 | 4.8 | 14.5 | 0.00 | 0.00 | 0.00 | ||
| 20260504191613 | 23 | 315 | 3.2 | 14.5 | 0.00 | 0.00 | 0.00 | ||
| 20260504190416 | 23 | 270 | 8.0 | 14.5 | 0.00 | 0.00 | 0.00 | ||
| 20260504185815 | 23 | 270 | 3.2 | 16.1 | 0.00 | 0.00 | 0.00 | ||
| 20260504185215 | 23 | 270 | 4.8 | 12.9 | 0.00 | 0.00 | 0.00 | ||
| 20260504184615 | 23 | 180 | 4.8 | 9.7 | 0.00 | 0.00 | 0.00 | ||
| 20260504184015 | 24 | 270 | 3.2 | 11.3 | 0.00 | 0.00 | 0.00 | ||
| 20260504183416 | 24 | 315 | 3.2 | 11.3 | 0.00 | 0.00 | 0.00 | ||
| 20260504182815 | 24 | 315 | 3.2 | 14.5 | 0.00 | 0.00 | 0.00 | ||
| 20260504182214 | 24 | 315 | 3.2 | 14.5 | 0.00 | 0.00 | 0.00 | ||
| 20260504181614 | 23 | 45 | 3.2 | 12.9 | 0.00 | 0.00 | 0.00 | ||
| 20260504180417 | 23 | 360 | 3.2 | 14.5 | 0.00 | 0.00 | 0.00 | ||
| 20260504175815 | 23 | 360 | 6.4 | 14.5 | 0.00 | 0.00 | 0.00 | ||
| 20260504175215 | 23 | 360 | 9.7 | 12.9 | 0.00 | 0.00 | 0.00 | ||
| 20260504174615 | 23 | 360 | 3.2 | 14.5 | 0.00 | 0.00 | 0.00 | ||
| 20260504174014 | 22 | 315 | 8.0 | 14.5 | 0.00 | 0.00 | 0.00 | ||
| 20260504173414 | 22 | 360 | 1.6 | 14.5 | 0.00 | 0.00 | 0.00 | ||
| 20260504172815 | 22 | 315 | 4.8 | 14.5 | 0.00 | 0.00 | 0.00 | ||
| 20260504172215 | 22 | 315 | 8.0 | 12.9 | 0.00 | 0.00 | 0.00 | ||
| 20260504171614 | 22 | 315 | 3.2 | 12.9 | 0.00 | 0.00 | 0.00 | ||
| 20260504170514 | 22 | 360 | 8.0 | 14.5 | 0.00 | 0.00 | 0.00 | ||
| 20260504160417 | 21 | 0 | 16.1 | 17.7 | 0.00 | 0.00 | 0.00 | ||
| 20260504150613 | 19 | 315 | 8.0 | 14.5 | 0.00 | 0.00 | 0.00 | ||
| 20260504140514 | 17 | 270 | 3.2 | 16.1 | 0.00 | 0.00 | 0.00 |